SB KEPS @ AMSAT $ORB07279.N 2Line Orbital Elements 07279.AMSAT
HR AMSAT ORBITAL ELEMENTS FOR AMATEUR SATELLITES IN NASA FORMAT FROM WA5QGD FORT WORTH,TX October 6, 2007 Send Subscribe/unsubscribe to KEPS at http://www.amsat.org/mailman/listinfo/keps BID: ORB07279.N
DECODE 2-LINE ELSETS WITH THE FOLLOWING KEY: 1 AAAAAU 00 0 0 BBBBB.BBBBBBBB .CCCCCCCC 00000-0 00000-0 0 DDDZ 2 AAAAA EEE.EEEE FFF.FFFF GGGGGGG HHH.HHHH III.IIII JJ.JJJJJJJJKKKKKZ KEY: A-CATALOGNUM B-EPOCHTIME C-DECAY D-ELSETNUM E-INCLINATION F-RAAN G-ECCENTRICITY H-ARGPERIGEE I-MNANOM J-MNMOTION K-ORBITNUM Z-CHECKSUM
TO ALL RADIO AMATEURS BT
AO-07 1 07530U 74089B 07278.67350699 -.00000028 00000-0 10000-3 0 09942 2 07530 101.5041 313.3897 0012180 040.9319 319.2663 12.53572695504960 AO-10 1 14129U 83058B 07278.31071089 -.00000273 00000-0 10000-3 0 04334 2 14129 026.0952 252.8978 6058906 061.8890 345.9359 02.05870740182833 UO-11 1 14781U 84021B 07279.23578915 .00000071 00000-0 16878-4 0 4897 2 14781 098.1860 304.0480 0009398 168.0181 192.1331 14.79582692266151 RS-15 1 23439U 94085A 07278.84751580 -.00000039 00000-0 10000-3 0 00942 2 23439 064.8170 187.9603 0156035 170.9264 189.4535 11.27552529526177 FO-29 1 24278U 96046B 07278.91159546 .00000010 00000-0 44461-4 0 06083 2 24278 098.5638 223.7490 0350962 156.3182 205.4562 13.52932420549870 SO-33 1 25509U 98061B 07278.56749993 .00000104 00000-0 78738-5 0 00366 2 25509 031.4347 321.6611 0355309 312.2875 044.8146 14.28177741467048 AO-40 1 26609U 00072B 07276.62628151 -.00000100 00000-0 10000-3 0 9474 2 26609 006.6642 117.5893 7948240 009.9589 359.5680 01.25585289 31800 VO-52 1 28650U 05017B 07279.35974425 .00000376 00000-0 54649-4 0 7455 2 28650 097.8220 347.5306 0026120 250.3119 109.5378 14.81365037130871 PO-63 1 29712U 07001D 07279.40958400 .00000611 00000-0 87863-4 0 7930 2 29712 097.9111 336.9716 0015390 126.0775 234.1863 14.79847518 39780 AO-16 1 20439U 90005D 07279.41604356 -.00000001 00000-0 14781-4 0 1489 2 20439 098.2071 267.8961 0010188 211.7044 148.3542 14.31771626924463 LO-19 1 20442U 90005G 07278.94678236 .00000152 00000-0 71496-4 0 00748 2 20442 098.1872 276.6304 0011100 212.3450 147.7065 14.32012192924546 AO-27 1 22825U 93061C 07278.53178704 -.00000075 00000-0 -13287-4 0 07950 2 22825 098.3470 243.6775 0007684 300.4332 059.6086 14.29218451731255 IO-26 1 22826U 93061D 07279.47004902 .00000018 00000-0 23502-4 0 4945 2 22826 098.3389 245.6000 0008318 295.2147 064.8186 14.29466015731472 PO-28 1 22829U 93061G 07278.53200497 -.00000052 00000-0 -39930-5 0 07701 2 22829 098.3283 245.8517 0008856 267.3695 092.6476 14.30167321731581 GO-32 1 25397U 98043D 07278.75425722 -.00000232 00000-0 -84264-4 0 4181 2 25397 098.4026 321.0636 0000280 238.7211 121.3951 14.23130355479887 MO-46 1 26548U 00057D 07278.89914394 -.00000022 00000-0 14900-4 0 09148 2 26548 064.5563 200.1513 0001683 188.1490 171.9562 14.83179114379950 NO-44 1 26931U 01043C 07278.84416876 .00000273 00000-0 13890-3 0 07014 2 26931 067.0528 222.4374 0006378 251.4035 108.6372 14.29499170313919 SO-50 1 27607U 02058C 07279.52884308 .00000083 00000-0 35036-4 0 4245 2 27607 064.5577 106.9702 0067683 332.0245 027.7208 14.71291268257508 CO-55 1 27844U 03031E 07278.54828793 .00000054 00000-0 45250-4 0 01375 2 27844 098.7208 285.3518 0010336 129.1929 231.0168 14.20534813221141 CO-57 1 27848U 03031J 07278.51259610 -.00000013 00000-0 14159-4 0 00955 2 27848 098.7198 284.4741 0010133 132.6582 227.5446 14.20350265221113 AO-51 1 28375U 04025K 07278.51892538 .00000007 00000-0 14948-4 0 09279 2 28375 098.1028 312.0985 0082974 207.9670 151.7048 14.40581549171594 CO-56 1 28941U 06005C 07278.84550317 .00019432 26054-5 19090-3 0 05867 2 28941 098.1170 352.5334 0210569 239.7520 118.2719 15.43746028090488 HO-59 1 29484U 06041F 07279.22804979 .00042413 31293-5 25165-3 0 7418 2 29484 098.2689 346.4972 0178714 224.9941 133.6685 15.59177561 58333 NO-61 1 29664U 06055F 07279.34586945 .00076298 13866-4 14313-3 0 5331 2 29664 051.6287 223.0950 0011147 069.4505 290.7701 16.00849182 45905 CP4 1 31122U 07012F 07278.83660977 .00000550 00000-0 13192-3 0 1529 2 31122 098.0741 348.4819 0086096 042.7451 318.0369 14.55038005 24949 CP3 1 31128U 07012M 07279.21053327 -.00000047 00000-0 00000 0 0 1479 2 31128 098.0728 347.9892 0103753 043.5741 317.3624 14.51870085 24939 LIBERT 1 31129U 07012N 07279.54472600 .00000339 00000-0 89029-4 0 4171 2 31129 098.0728 348.3238 0103771 042.2750 318.6369 14.51962925 24963 NOAA-10 1 16969U 86073A 07278.57125663 .00000061 00000-0 43038-4 0 08408 2 16969 098.7439 295.8080 0011896 203.0507 157.0128 14.27335906094970 NOAA-11 1 19531U 88089A 07278.31092165 .00000053 00000-0 50305-4 0 08694 2 19531 098.8091 006.0919 0012432 078.0493 282.2089 14.14852907981723 NOAA-12 1 21263U 91032A 07278.57099791 -.00000068 00000-0 -96874-5 0 03731 2 21263 098.7616 275.6654 0013030 144.5545 215.6495 14.25495663851970 MET-3/5 1 21655U 91056A 07278.93595712 .00000051 00000-0 10000-3 0 03573 2 21655 082.5510 284.6983 0012341 295.8061 064.1784 13.17012506775986 MET-2/21 1 22782U 93055A 07279.51714569 .00000093 00000-0 70946-4 0 9516 2 22782 082.5478 313.6033 0020864 285.4148 074.4722 13.83619555711919 OKEAN-4 1 23317U 94066A 07279.41056685 .00000231 00000-0 25703-4 0 3903 2 23317 082.5410 192.7700 0020500 245.4726 114.4366 14.82538750700534 NOAA-14 1 23455U 94089A 07278.77077761 -.00000364 00000-0 -16854-3 0 08457 2 23455 098.9788 345.4862 0010071 143.4718 216.7140 14.13724723658261 SICH-1 1 23657U 95046A 07278.71723054 .00000030 00000-0 82141-6 0 01908 2 23657 082.5299 334.3751 0022399 237.8261 122.0794 14.81515713652396 NOAA-15 1 25338U 98030A 07278.57675770 .00000033 00000-0 32712-4 0 01895 2 25338 098.5405 272.1918 0011579 069.6460 290.5956 14.24666958488409 RESURS 1 25394U 98043A 07278.72386123 .00000000 00000-0 18174-4 0 7536 2 25394 098.4264 328.8104 0000686 195.9773 164.1385 14.24146472480088 FENGYUN1 1 25730U 99025A 07278.95621471 .00000107 00000-0 88103-4 0 02413 2 25730 098.6992 258.6763 0018135 168.0903 192.0702 14.07614743433057 OKEAN-0 1 25860U 99039A 07278.51523092 .00000036 00000-0 12827-4 0 01773 2 25860 097.7371 275.6437 0001796 052.9064 307.2305 14.73476463441745 NOAA-16 1 26536U 00055A 07278.55592691 .00000153 00000-0 10810-3 0 06290 2 26536 099.1308 257.4873 0009997 220.5990 139.4422 14.12454612362681 NOAA-17 1 27453U 02032A 07278.77161709 .00000045 00000-0 38411-4 0 06289 2 27453 098.5690 345.3654 0012620 130.0602 230.1671 14.23913800274456 NOAA-18 1 28654U 05018A 07278.79712304 .00000013 00000-0 31586-4 0 01517 2 28654 098.8359 218.2590 0013860 319.3153 040.6976 14.11100057122455 HUBBLE 1 20580U 90037B 07278.97005833 .00000406 00000-0 18682-4 0 09790 2 20580 028.4679 187.6992 0003971 191.6596 168.3894 15.00286790756614 UARS 1 21701U 91063B 07279.24260452 .00008065 00000-0 12947-3 0 1852 2 21701 056.9732 191.6817 0094671 049.8745 311.0558 15.49149248882954 PO-34 1 25520U 98064B 07279.55244121 .00000367 00000-0 83795-5 0 8385 2 25520 028.4590 083.3694 0004806 030.3932 329.6859 15.17058432494459 ISS 1 25544U 98067A 07278.94980191 .00010345 00000-0 70882-4 0 01056 2 25544 051.6346 252.5333 0003174 067.8792 342.5544 15.75431200508259 OO-38 1 26063U 00004C 07278.62006482 -.00000058 00000-0 32845-6 0 00288 2 26063 100.2273 301.6471 0036592 208.7481 151.1683 14.35815916402892 UWE-1 1 28892U 05043C 07278.38109402 .00000107 00000-0 32132-4 0 08668 2 28892 098.1173 172.7558 0018433 126.2908 233.9980 14.59545529103289 CO-58 1 28895U 05043F 07279.24756054 .00000140 00000-0 39100-4 0 8421 2 28895 098.1213 173.8586 0018880 124.0024 236.3002 14.59589399103297 NCUBE2 1 28897U 05043H 07279.24138019 .00000131 00000-0 36932-4 0 3692 2 28897 098.1178 173.8008 0017813 124.6559 235.6350 14.59754381 95576 FCAL 1 29667U 06055J 07279.31351900 .00027298 11471-4 87963-4 0 3800 2 29667 051.6298 229.8503 0013839 064.1671 296.0769 15.92351872 45686 FALCON 1 30776U 07006E 07278.34298364 .00000293 00000-0 24559-4 0 01624 2 30776 035.4340 264.8567 0001796 324.4839 035.5757 15.02775260031638 MAST 1 31126U 07012K 07279.23949256 .00000343 00000-0 88342-4 0 1506 2 31126 098.0736 348.4201 0095447 042.3731 318.4762 14.53368524 24984 CAPE1 1 31130U 07012P 07278.17459388 .00000160 00000-0 47893-4 0 1328 2 31130 098.0729 346.9935 0103659 046.7228 314.2550 14.51889863 24578 /EX